This is the latest recevied weather packets stored in our database for station/object W7TRD. If no packets are shown the sender has not sent any weather packets the latest 10 day(s).
| Time | Temp. | Humidity | Pressure | Rain* | Wind** | Luminosity | Snow |
|---|---|---|---|---|---|---|---|
| 1777067769 | 20.56° C | 32% | 1016.2 hPa | 0 mm | - | 629 W/m² | - |
| 1777067468 | 20° C | 31% | 1016.5 hPa | 0 mm | - | 636 W/m² | - |
| 1777067167 | 20.56° C | 31% | 1016.7 hPa | 0 mm | - | 672 W/m² | - |
| 1777066863 | 21.11° C | 32% | 1016.8 hPa | 0 mm | - | 659 W/m² | - |
| 1777066558 | 20.56° C | 33% | 1016.7 hPa | 0 mm | - | 660 W/m² | - |
| 1777066254 | 20° C | 32% | 1016.7 hPa | 0 mm | - | 669 W/m² | - |
| 1777065953 | 20.56° C | 30% | 1017 hPa | 0 mm | - | 674 W/m² | - |
| 1777065650 | 20.56° C | 32% | 1017.1 hPa | 0 mm | - | 677 W/m² | - |
| 1777065349 | 20° C | 33% | 1016.8 hPa | 0 mm | - | 688 W/m² | - |
| 1777065045 | 20° C | 34% | 1017 hPa | 0 mm | - | 688 W/m² | - |
| 1777064742 | 19.44° C | 34% | 1017 hPa | 0 mm | - | 693 W/m² | - |
| 1777064439 | 20° C | 32% | 1017 hPa | 0 mm | - | 697 W/m² | - |
| 1777064135 | 20.56° C | 34% | 1017 hPa | 0 mm | - | 704 W/m² | - |
| 1777063835 | 20° C | 35% | 1017.3 hPa | 0 mm | - | 712 W/m² | - |
| 1777063530 | 20.56° C | 32% | 1017.3 hPa | 0 mm | - | 728 W/m² | - |
| 1777063226 | 20.56° C | 32% | 1017 hPa | 0 mm | - | 227 W/m² | - |
| 1777062923 | 20° C | 31% | 1017.1 hPa | 0 mm | - | 742 W/m² | - |
| 1777062620 | 19.44° C | 32% | 1017.5 hPa | 0 mm | - | 740 W/m² | - |
| 1777062317 | 20° C | 31% | 1017.3 hPa | 0 mm | - | 728 W/m² | - |
| 1777062015 | 20.56° C | 34% | 1017.1 hPa | 0 mm | - | 729 W/m² | - |
| 1777061711 | 20° C | 34% | 1017.5 hPa | 0 mm | - | 732 W/m² | - |
| 1777061408 | 18.89° C | 35% | 1017.6 hPa | 0 mm | - | 729 W/m² | - |
| 1777061103 | 18.33° C | 35% | 1017.7 hPa | 0 mm | - | 743 W/m² | - |
| 1777060799 | 19.44° C | 35% | 1017.8 hPa | 0 mm | - | 729 W/m² | - |
| 1777060494 | 19.44° C | 33% | 1017.8 hPa | 0 mm | - | 729 W/m² | - |
* Rain latest hour (hover to see other rain measurements)
** Current wind speed in m/s (hover to see current wind gust speed)